Other Public Products
Issued by NWS Grand Forks, ND

Home | Current Version | Previous Version | Text Only | Print | Product List | Glossary Off
Versions: 1 2 3 4 5 6 7 8 9 10 11 12 13 14 15 16 17 18 19 20 21 22 23 24 25 26 27 28 29 30 31 32 33 34 35 36 37 38 39 40 41 42 43 44 45 46 47 48 49 50

000
FPUS83 KFGF 281831
OPUFGF
PRAIRIE TO PINES WEATHER ROUNDUP
NATIONAL WEATHER SERVICE EASTERN NORTH DAKOTA/GRAND FORKS ND
100 PM CDT TUE JUL 28 2015

 **SATELLITE DATA USED TO AUGMENT SKY COVER AT AUTOMATED STATIONS**
 *****  WEATHER ACROSS EASTERN NORTH DAKOTA  *****

CITY           SKY/WX    TMP DP  RH WIND       PRES   REMARKS
GRAND FORKS    MOSUNNY   76  59  55 SW21G28   29.61F
6HR MIN TEMP:  71; 6HR MAX TEMP:  77;

GRAND FORKS AF MOSUNNY   76  59  54 SW22G28   29.62S
GRAND CITY NWS   N/A     73 N/A N/A SW22        N/A
BUXTON         NOT AVBL
DEVILS LAKE    PTSUNNY   72  52  49 SW25G37   29.60S
6HR MIN TEMP:  66; 6HR MAX TEMP:  72;

FARGO          MOSUNNY   77  60  55 SW21G29   29.70R
6HR MIN TEMP:  71; 6HR MAX TEMP:  77;

WAHPETON ARPT  PTCLDY    75  57  53 SW16G23   29.76S
$$

 *****  WEATHER ACROSS CENTRAL AND WESTERN NORTH DAKOTA  *****

CITY           SKY/WX    TMP DP  RH WIND       PRES   REMARKS
JAMESTOWN      PTSUNNY   73  52  47 SW26G35   29.71S
6HR MIN TEMP:  65; 6HR MAX TEMP:  73;

BISMARCK       CLOUDY    71  49  45 W32G44    29.73S
6HR MIN TEMP:  62; 6HR MAX TEMP:  72;

MINOT          LGT RAIN  69  53  56 S31G39    29.51F
6HR MIN TEMP:  63; 6HR MAX TEMP:  68; 6HR PCP: TRACE;

MINOT AFB      DRIZZLE   68  59  73 SW22G40   29.48F
6HR MIN TEMP:  64; 6HR MAX TEMP:  68;

GARRISON         N/A     67  55  65 W31G46    29.60S
6HR MIN TEMP:  61; 6HR MAX TEMP:  67;

WILLISTON      LGT RAIN  59  55  87 W31G46    29.54R FOG
6HR MIN TEMP:  57; 6HR MAX TEMP:  60; 6HR PCP:  0.03;

DICKINSON      PTSUNNY   64  50  60 W41G55    29.74R
6HR MIN TEMP:  57; 6HR MAX TEMP:  66;

HETTINGER      CLOUDY    64  45  49 W37G47    29.87R
6HR MIN TEMP:  54; 6HR MAX TEMP:  66;

$$

 *****  OTHER OBSERVATIONS NORTHEAST NORTH DAKOTA  *****

CITY           SKY/WX    TMP DP  RH WIND       PRES   REMARKS
WALHALLA       FAIR      75  61  60 MISG      29.54S
LANGDON        CLOUDY    73  57  56 SW24G33   29.58S
CAVALIER       MOCLDY    75  59  57 SW13G25   29.54F
GRAFTON        FAIR      77  61  57 SW23G31   29.58F
CANDO          MOCLDY    68  55  64 SW23G33   29.57F
FORT TOTTEN      N/A     71  55  55 SW14      29.95S
ROLLA          CLOUDY    64  54  68 SW18G32   29.54F
RUGBY          NOT AVBL
 ***** THE ABOVE OBSERVATIONS ARE NON NWS ARE NOT QUALITY
        CONTROLLED AND MAY MIS-REPORT RAIN FOR SNOW...
$$

 *****  OTHER OBSERVATIONS SOUTHEAST NORTH DAKOTA *****

CITY           SKY/WX    TMP DP  RH WIND       PRES   REMARKS
COOPERSTOWN    NOT AVBL
VALLEY CITY    FAIR      73  55  53 W28G41    29.71S
OAKES            N/A     75  57  53 SW23G35   29.77S
GWINNER        FAIR      73  59  60 SW22G29   29.76F
BUFFALO        NOT AVBL
WYNDMERE         N/A     75  61  60 W15         N/A
 ***** THE ABOVE OBSERVATIONS ARE NON NWS ARE NOT QUALITY
       CONTROLLED AND MAY MIS-REPORT RAIN FOR SNOW...
$$

  *****  WEATHER ACROSS NORTHERN MINNESOTA  *****

CITY           SKY/WX    TMP DP  RH WIND       PRES   REMARKS
FLAG ISLAND    PTSUNNY   73  70  88 S18       29.57F
WARROAD        PTSUNNY   77  72  83 S16G22    29.59F
ROSEAU         MOSUNNY   81  72  74 S17       29.58F
HALLOCK        MOSUNNY   77  64  65 SW16G25   29.56S
THF RVR FALLS  PTSUNNY   75  66  73 SW17G23   29.63S
6HR MIN TEMP:  70; 6HR MAX TEMP:  75; 6HR PCP:  0.03;

HALSTAD        NOT AVBL
FOSSTON        MOSUNNY   77  68  73 SW22G28   29.68S
BAUDETTE       CLOUDY    78  69  73 S14G22    29.62S
6HR MIN TEMP:  72; 6HR MAX TEMP:  77; 6HR PCP:  0.11;

WASKISH        CLOUDY    77  72  83 S8        29.66S
CROOKSTON      MOSUNNY   75  63  64 SW20G25   29.65R
$$
  *****  WEATHER ACROSS CENTRAL AND WEST MINNESOTA  *****

CITY           SKY/WX    TMP DP  RH WIND       PRES   REMARKS
BEMIDJI        CLOUDY    76  67  75 S10       29.69S
PARK RAPIDS    PTSUNNY   78  67  68 SW20G28   29.74S
6HR MIN TEMP:  71; 6HR MAX TEMP:  78; 6HR PCP:  0.10;

WADENA         PTSUNNY   79  66  65 SW15G22   29.76S
DETROIT LAKES  MOSUNNY   77  63  61 SW17G24   29.75R
MOORHEAD       SUNNY     75  61  60 SW18G24   29.72S
FERGUS FALLS   SUNNY     77  64  65 W18       29.75S
ELBOW LAKE     CLOUDY    76  66  72 SW14G21   29.78R
MORRIS MN      CLOUDY    77  70  78 W16       29.79R
STAPLES        CLOUDY    75  66  73 SW9       29.77S
WHEATON        SUNNY     75  63  64 SW12G17   29.79S
$$
  *****  WEATHER ELSEWHERE ACROSS MINNESOTA  *****

CITY           SKY/WX    TMP DP  RH WIND       PRES   REMARKS
DULUTH         CLOUDY    79  68  69 SW15G31   29.79S
6HR MIN TEMP:  70; 6HR MAX TEMP:  79; 6HR PCP: TRACE;

INTRNTL FALLS  CLOUDY    73  71  93 SE10G18   29.67F
6HR MIN TEMP:  70; 6HR MAX TEMP:  73; 6HR PCP:  0.08;

ELY            CLOUDY    75  66  73 SE12G20   29.76F
CLOQUET        CLOUDY    81  66  61 S22G28    29.79S
BRAINERD       CLOUDY    78  67  68 S21       29.78S
6HR MIN TEMP:  70; 6HR MAX TEMP:  78; 6HR PCP: TRACE;

HIBBING        CLOUDY    79  68  69 S10G25    29.75F
6HR MIN TEMP:  70; 6HR MAX TEMP:  80; 6HR PCP:  0.06;

ALEXANDRIA     CLOUDY    77  67  71 SW14G24   29.81R
6HR MIN TEMP:  69; 6HR MAX TEMP:  78;

SAINT CLOUD    CLOUDY    79  68  69 S16       29.80F
6HR MIN TEMP:  71; 6HR MAX TEMP:  79; 6HR PCP: TRACE;

MINNEAPOLIS    CLOUDY    78  68  71 S15       29.83F
6HR MIN TEMP:  70; 6HR MAX TEMP:  78; 6HR PCP:  0.84;

$$

  *****  WEATHER ACROSS SOUTH DAKOTA  *****

CITY           SKY/WX    TMP DP  RH WIND       PRES   REMARKS
SIOUX FALLS    PTSUNNY   76  68  76 W14       29.87R
6HR MIN TEMP:  69; 6HR MAX TEMP:  80;

BROOKINGS      MOSUNNY   73  63  68 W18       29.89R
WATERTOWN      SUNNY     74  60  61 W16       29.85R
6HR MIN TEMP:  67; 6HR MAX TEMP:  74;

HURON          SUNNY     74  57  55 W16G26    29.88F
6HR MIN TEMP:  68; 6HR MAX TEMP:  74;

SISSETON         N/A     76  60  57 W24G33    29.76F
ABERDEEN       SUNNY     74  54  49 SW20G29   29.82F
6HR MIN TEMP:  68; 6HR MAX TEMP:  75;

MITCHELL       SUNNY     76  59  55 W13       29.90S
PIERRE         SUNNY     77  47  34 W26G37    29.90S
6HR MIN TEMP:  61; 6HR MAX TEMP:  78;

MOBRIDGE       MOSUNNY   74  51  44 W22G35    29.82S
RAPID CITY     SUNNY     74  42  31 W16       30.02S
6HR MIN TEMP:  55; 6HR MAX TEMP:  74;

$$

  *****  SOME WEATHER IN NEARBY STATES *****

CITY           SKY/WX    TMP DP  RH WIND       PRES   REMARKS
GLASGOW MT     LGT RAIN  57  53  86 W29G40    29.77R
6HR MIN TEMP:  56; 6HR MAX TEMP:  57; 6HR PCP:  0.27;

GREAT FALLS MT MOSUNNY   69  40  34 W21       30.11R
6HR MIN TEMP:  51; 6HR MAX TEMP:  69;

CHEYENNE WY    SUNNY     74  30  19 NW16G29   30.19S
6HR MIN TEMP:  54; 6HR MAX TEMP:  75;

SCOTTSBLUFF NE SUNNY     76  35  22 NW16      30.12R
6HR MIN TEMP:  53; 6HR MAX TEMP:  76;

OMAHA NE       PTSUNNY   87  75  67 SE12      29.85S HX  96
6HR MIN TEMP:  73; 6HR MAX TEMP:  87; 6HR PCP:  0.30;

DES MOINES IA  CLOUDY    83  73  72 SE22G28   29.86F
6HR MIN TEMP:  75; 6HR MAX TEMP:  83; 6HR PCP:  0.01;

DAVENPORT IA   LGT RAIN  73  70  90 N3        29.98F FOG
6HR MIN TEMP:  73; 6HR MAX TEMP:  82; 6HR PCP:  0.71;

CHICAGO IL     PTSUNNY   87  69  54 SW5       29.98S HX  91
6HR MIN TEMP:  73; 6HR MAX TEMP:  88;

EAU CLAIRE WI  CLOUDY    78  69  73 SW14      29.85R
6HR MIN TEMP:  70; 6HR MAX TEMP:  79; 6HR PCP:  0.29;

LA CROSSE WI   CLOUDY    75  71  87 SW8       29.86S
6HR MIN TEMP:  71; 6HR MAX TEMP:  75; 6HR PCP:  0.72;

$$

  *****  SOME NATIONAL WEATHER *****

CITY           SKY/WX    TMP DP  RH WIND       PRES   REMARKS
LA GUARDIA NY  PTSUNNY   92  58  31 NE5       29.95F HX  91
6HR MIN TEMP:  79; 6HR MAX TEMP:  92;



USA.gov is the U.S. government's official web portal to all federal, state and local government web resources and services.